TGL25CF LFPO-LFPG

Flight info

Callsign TGL25CF
Flight time 0h 35m
Altitude 30000
Route LGL A34 LISEU DCT LUKIP
Aircraft A320/M-SDE3FGHIRWY/LB1

Departure

Time 2026-05-07 08:48
Airport Paris-Orly Airport (LFPO)

Arrival

Time 2026-05-07 09:23
Airport Charles de Gaulle International Airport (LFPG)
Time Latitude Longitude Altitude Speed Heading
2026-05-07 08:14 48.73072 2.35898 291 ft 0 kts 134°
2026-05-07 08:34 48.73072 2.35897 291 ft 1 kts 134°
2026-05-07 08:35 48.73086 2.35877 297 ft 3 kts 139°
2026-05-07 08:35 48.73102 2.35857 296 ft 3 kts 141°
2026-05-07 08:35 48.73117 2.35838 292 ft 3 kts 129°
2026-05-07 08:35 48.73125 2.35818 295 ft 3 kts 75°
2026-05-07 08:36 48.73124 2.35812 295 ft 0 kts 57°
2026-05-07 08:41 48.73130 2.35826 291 ft 5 kts 57°
2026-05-07 08:41 48.73152 2.35876 295 ft 10 kts 57°
2026-05-07 08:41 48.73185 2.35955 296 ft 8 kts 56°
2026-05-07 08:42 48.73214 2.36018 293 ft 7 kts 55°
2026-05-07 08:42 48.73239 2.36071 294 ft 6 kts 51°
2026-05-07 08:42 48.73291 2.36095 291 ft 10 kts 341°
2026-05-07 08:42 48.73370 2.36079 292 ft 13 kts 15°
2026-05-07 08:43 48.73430 2.36097 291 ft 4 kts
2026-05-07 08:43 48.73431 2.36097 291 ft 0 kts
2026-05-07 08:46 48.73438 2.36096 291 ft 6 kts 358°
2026-05-07 08:46 48.73516 2.36043 294 ft 15 kts 309°
2026-05-07 08:47 48.73491 2.35914 295 ft 7 kts 240°
2026-05-07 08:47 48.73482 2.35891 292 ft 17 kts 240°
2026-05-07 08:47 48.73293 2.35353 294 ft 93 kts 242°
2026-05-07 08:47 48.72898 2.34236 292 ft 148 kts 242°
2026-05-07 08:48 48.72369 2.32683 509 ft 176 kts 244°
2026-05-07 08:48 48.71777 2.31050 1227 ft 176 kts 240°
2026-05-07 08:48 48.71109 2.29461 1869 ft 186 kts 238°
2026-05-07 08:48 48.70357 2.27730 2190 ft 209 kts 237°
2026-05-07 08:49 48.69510 2.25787 2611 ft 234 kts 238°
2026-05-07 08:49 48.68573 2.23628 3198 ft 255 kts 238°
2026-05-07 08:49 48.67581 2.21335 4092 ft 263 kts 237°
2026-05-07 08:49 48.66576 2.18989 5015 ft 268 kts 239°
2026-05-07 08:50 48.65667 2.16516 5940 ft 271 kts 243°
2026-05-07 08:50 48.64834 2.13941 6840 ft 274 kts 245°
2026-05-07 08:50 48.64022 2.11311 7695 ft 277 kts 245°
2026-05-07 08:50 48.63218 2.08639 8572 ft 281 kts 249°
2026-05-07 08:51 48.62898 2.05727 9386 ft 286 kts 274°
2026-05-07 08:51 48.63381 2.02800 10201 ft 290 kts 289°
2026-05-07 08:51 48.64074 1.99822 10566 ft 311 kts 289°
2026-05-07 08:51 48.64803 1.96623 10876 ft 332 kts 288°
2026-05-07 08:52 48.65570 1.93201 11030 ft 355 kts 288°
2026-05-07 08:52 48.66385 1.89553 11062 ft 378 kts 288°
2026-05-07 08:52 48.67223 1.85705 11065 ft 389 kts 287°
2026-05-07 08:52 48.68044 1.81788 11062 ft 392 kts 287°
2026-05-07 08:53 48.68852 1.77847 11062 ft 392 kts 287°
2026-05-07 08:53 48.69644 1.73961 11064 ft 392 kts 287°
2026-05-07 08:53 48.70445 1.70027 11070 ft 392 kts 287°
2026-05-07 08:53 48.71252 1.66081 11069 ft 392 kts 287°
2026-05-07 08:54 48.72063 1.62140 11068 ft 392 kts 287°
2026-05-07 08:54 48.72875 1.58190 11068 ft 392 kts 287°
2026-05-07 08:54 48.73683 1.54246 11071 ft 393 kts 287°
2026-05-07 08:54 48.74479 1.50287 11074 ft 393 kts 284°
2026-05-07 08:55 48.74953 1.46219 11075 ft 393 kts 275°
2026-05-07 08:55 48.75149 1.42087 11079 ft 393 kts 274°
2026-05-07 08:55 48.75345 1.37955 11087 ft 393 kts 274°
2026-05-07 08:55 48.75540 1.33817 11089 ft 393 kts 274°
2026-05-07 08:56 48.75734 1.29685 11091 ft 393 kts 274°
2026-05-07 08:56 48.75927 1.25552 11089 ft 393 kts 274°
2026-05-07 08:56 48.76122 1.21421 11094 ft 393 kts 274°
2026-05-07 08:56 48.76315 1.17293 11094 ft 393 kts 274°
2026-05-07 08:57 48.76505 1.13158 11095 ft 393 kts 274°
2026-05-07 08:57 48.76692 1.09031 11093 ft 393 kts 274°
2026-05-07 08:57 48.76900 1.04908 11096 ft 394 kts 277°
2026-05-07 08:57 48.77651 1.00926 11290 ft 394 kts 294°
2026-05-07 08:58 48.79142 0.97447 11539 ft 396 kts 311°
2026-05-07 08:58 48.81274 0.94815 11798 ft 398 kts 330°
2026-05-07 08:58 48.83865 0.93306 12013 ft 401 kts 347°
2026-05-07 08:58 48.86644 0.93094 12084 ft 403 kts
2026-05-07 08:59 48.89310 0.94191 12086 ft 404 kts 24°
2026-05-07 08:59 48.91653 0.96525 12082 ft 405 kts 42°
2026-05-07 08:59 48.93481 0.99849 12086 ft 406 kts 54°
2026-05-07 08:59 48.95138 1.03330 12082 ft 406 kts 54°
2026-05-07 09:00 48.96768 1.06769 12084 ft 406 kts 54°
2026-05-07 09:00 48.98420 1.10258 12087 ft 406 kts 54°
2026-05-07 09:00 49.00072 1.13744 12082 ft 406 kts 54°
2026-05-07 09:00 49.01726 1.17232 12085 ft 406 kts 54°
2026-05-07 09:01 49.03382 1.20718 12088 ft 406 kts 54°
2026-05-07 09:01 49.05039 1.24207 12091 ft 406 kts 54°
2026-05-07 09:01 49.06692 1.27700 12090 ft 406 kts 54°
2026-05-07 09:01 49.08342 1.31198 12089 ft 406 kts 54°
2026-05-07 09:02 49.09991 1.34694 12088 ft 406 kts 54°
2026-05-07 09:02 49.11640 1.38204 12088 ft 406 kts 54°
2026-05-07 09:02 49.13287 1.41704 12087 ft 407 kts 54°
2026-05-07 09:02 49.14937 1.45214 12087 ft 407 kts 54°
2026-05-07 09:03 49.16588 1.48722 12090 ft 407 kts 54°
2026-05-07 09:03 49.18236 1.52235 12089 ft 407 kts 54°
2026-05-07 09:03 49.19879 1.55750 12088 ft 407 kts 54°
2026-05-07 09:03 49.21525 1.59273 12088 ft 407 kts 54°
2026-05-07 09:04 49.23167 1.62799 12081 ft 407 kts 54°
2026-05-07 09:04 49.24774 1.66280 12067 ft 391 kts 57°
2026-05-07 09:04 49.25852 1.69998 12071 ft 380 kts 76°
2026-05-07 09:04 49.26077 1.73992 12072 ft 377 kts 91°
2026-05-07 09:05 49.26011 1.78004 12061 ft 377 kts 92°
2026-05-07 09:05 49.25927 1.82016 12062 ft 377 kts 92°
2026-05-07 09:05 49.25840 1.86022 12063 ft 377 kts 92°
2026-05-07 09:05 49.25752 1.90045 12072 ft 377 kts 92°
2026-05-07 09:06 49.25664 1.94057 12073 ft 377 kts 92°
2026-05-07 09:06 49.25575 1.98061 12071 ft 377 kts 92°
2026-05-07 09:06 49.25487 2.02023 12074 ft 377 kts 92°
2026-05-07 09:06 49.25403 2.06036 12072 ft 377 kts 92°
2026-05-07 09:07 49.25312 2.10112 11907 ft 395 kts 92°
2026-05-07 09:07 49.25214 2.14358 11598 ft 402 kts 92°
2026-05-07 09:07 49.25115 2.18636 11301 ft 402 kts 92°
2026-05-07 09:07 49.25016 2.22905 11047 ft 401 kts 92°
2026-05-07 09:08 49.24925 2.27158 10798 ft 400 kts 92°
2026-05-07 09:08 49.24835 2.31407 10553 ft 398 kts 92°
2026-05-07 09:08 49.24746 2.35572 10305 ft 383 kts 92°
2026-05-07 09:08 49.24661 2.39559 10102 ft 367 kts 92°
2026-05-07 09:09 49.24581 2.43369 10056 ft 348 kts 92°
2026-05-07 09:09 49.24505 2.46960 10066 ft 328 kts 92°
2026-05-07 09:09 49.24433 2.50363 10066 ft 311 kts 92°
2026-05-07 09:09 49.24367 2.53595 10065 ft 298 kts 92°
2026-05-07 09:10 49.24302 2.56748 9960 ft 296 kts 92°
2026-05-07 09:10 49.24236 2.59873 9696 ft 292 kts 92°
2026-05-07 09:10 49.24172 2.62973 9425 ft 291 kts 92°
2026-05-07 09:10 49.24111 2.66050 9154 ft 289 kts 92°
2026-05-07 09:11 49.24053 2.69121 8886 ft 287 kts 92°
2026-05-07 09:11 49.23997 2.72166 8624 ft 286 kts 92°
2026-05-07 09:11 49.23942 2.75200 8364 ft 285 kts 92°
2026-05-07 09:11 49.23666 2.78171 8112 ft 281 kts 108°
2026-05-07 09:12 49.23003 2.80974 7852 ft 280 kts 111°
2026-05-07 09:12 49.22305 2.83713 7592 ft 273 kts 112°
2026-05-07 09:12 49.21620 2.86388 7334 ft 267 kts 112°
2026-05-07 09:12 49.20950 2.89002 7103 ft 261 kts 112°
2026-05-07 09:13 49.20291 2.91555 6839 ft 255 kts 112°
2026-05-07 09:13 49.19643 2.94043 6593 ft 249 kts 112°
2026-05-07 09:13 49.19008 2.96474 6340 ft 244 kts 112°
2026-05-07 09:13 49.18448 2.98893 6081 ft 239 kts 108°
2026-05-07 09:14 49.17920 3.01285 5805 ft 236 kts 117°
2026-05-07 09:14 49.16860 3.03134 5552 ft 234 kts 146°
2026-05-07 09:14 49.15463 3.04405 5294 ft 233 kts 152°
2026-05-07 09:14 49.14031 3.05571 5033 ft 233 kts 152°
2026-05-07 09:15 49.12617 3.06702 4784 ft 232 kts 152°
2026-05-07 09:15 49.11187 3.07836 4520 ft 232 kts 152°
2026-05-07 09:15 49.09756 3.08967 4260 ft 232 kts 153°
2026-05-07 09:15 49.08331 3.10096 4049 ft 230 kts 153°
2026-05-07 09:16 49.06806 3.10747 3984 ft 230 kts 182°
2026-05-07 09:16 49.05294 3.10053 3988 ft 231 kts 213°
2026-05-07 09:16 49.04029 3.08538 3991 ft 232 kts 221°
2026-05-07 09:16 49.02831 3.06888 3985 ft 233 kts 226°
2026-05-07 09:17 49.01946 3.04846 3982 ft 233 kts 249°
2026-05-07 09:17 49.01633 3.02439 3988 ft 232 kts 266°
2026-05-07 09:17 49.01516 2.99980 3988 ft 233 kts 266°
2026-05-07 09:17 49.01399 2.97523 3990 ft 232 kts 266°
2026-05-07 09:18 49.01278 2.95069 3988 ft 231 kts 266°
2026-05-07 09:18 49.01159 2.92702 3980 ft 217 kts 266°
2026-05-07 09:18 49.01048 2.90494 4001 ft 200 kts 266°
2026-05-07 09:18 49.00945 2.88463 3940 ft 190 kts 266°
2026-05-07 09:19 49.00844 2.86455 3749 ft 190 kts 266°
2026-05-07 09:19 49.00743 2.84454 3508 ft 189 kts 266°
2026-05-07 09:19 49.00641 2.82458 3263 ft 188 kts 266°
2026-05-07 09:19 49.00540 2.80473 3017 ft 187 kts 266°
2026-05-07 09:20 49.00439 2.78502 2761 ft 186 kts 266°
2026-05-07 09:20 49.00339 2.76573 2511 ft 179 kts 266°
2026-05-07 09:20 49.00243 2.74715 2268 ft 172 kts 266°
2026-05-07 09:20 49.00152 2.72947 2035 ft 163 kts 266°
2026-05-07 09:21 49.00065 2.71282 1837 ft 151 kts 266°
2026-05-07 09:21 48.99984 2.69725 1622 ft 144 kts 268°
2026-05-07 09:21 48.99906 2.68217 1425 ft 142 kts 268°
2026-05-07 09:21 48.99828 2.66728 1229 ft 140 kts 267°
2026-05-07 09:22 48.99750 2.65244 1023 ft 140 kts 267°
2026-05-07 09:22 48.99672 2.63765 834 ft 140 kts 266°
2026-05-07 09:22 48.99583 2.62289 648 ft 141 kts 266°
2026-05-07 09:22 48.99502 2.60830 485 ft 140 kts 268°
2026-05-07 09:23 48.99447 2.59377 357 ft 129 kts 263°
2026-05-07 09:23 48.99384 2.58254 353 ft 82 kts 265°
2026-05-07 09:23 48.99348 2.57631 352 ft 44 kts 265°
2026-05-07 09:23 48.99379 2.57309 357 ft 28 kts 288°
2026-05-07 09:24 48.99434 2.57018 357 ft 29 kts 286°
2026-05-07 09:24 48.99457 2.56889 358 ft 8 kts 285°
2026-05-07 09:24 48.99465 2.56843 354 ft 0 kts 282°
2026-05-07 09:25 48.99472 2.56793 362 ft 12 kts 282°
2026-05-07 09:25 48.99489 2.56668 362 ft 8 kts 304°
2026-05-07 09:25 48.99557 2.56630 354 ft 14 kts 353°
2026-05-07 09:26 48.99674 2.56616 355 ft 19 kts 355°
2026-05-07 09:26 48.99759 2.56605 359 ft 0 kts 354°
2026-05-07 09:27 48.99776 2.56599 354 ft 8 kts 343°
2026-05-07 09:27 48.99809 2.56557 357 ft 10 kts 305°
2026-05-07 09:27 48.99818 2.56380 354 ft 7 kts 265°
2026-05-07 09:28 48.99814 2.56310 358 ft 6 kts 264°
2026-05-07 09:28 48.99807 2.56203 354 ft 13 kts 264°
2026-05-07 09:28 48.99797 2.56045 358 ft 17 kts 266°
2026-05-07 09:28 48.99808 2.55877 359 ft 17 kts 284°
2026-05-07 09:29 48.99824 2.55780 354 ft 8 kts 285°
2026-05-07 09:29 48.99846 2.55683 361 ft 12 kts 294°
2026-05-07 09:29 48.99906 2.55577 361 ft 15 kts 327°
2026-05-07 09:29 49.00014 2.55517 361 ft 18 kts 342°
2026-05-07 09:30 49.00140 2.55464 359 ft 20 kts 344°
2026-05-07 09:30 49.00278 2.55400 358 ft 22 kts 343°
2026-05-07 09:30 49.00413 2.55341 359 ft 17 kts 345°
2026-05-07 09:30 49.00493 2.55342 356 ft 12 kts 20°
2026-05-07 09:31 49.00545 2.55442 360 ft 13 kts 75°
2026-05-07 09:31 49.00554 2.55580 358 ft 13 kts 85°
2026-05-07 09:31 49.00561 2.55714 357 ft 12 kts 85°
2026-05-07 09:31 49.00567 2.55823 361 ft 10 kts 85°
2026-05-07 09:32 49.00567 2.55925 356 ft 9 kts 92°
2026-05-07 09:32 49.00572 2.56015 354 ft 8 kts 77°
2026-05-07 09:32 49.00587 2.56099 359 ft 9 kts 78°
2026-05-07 09:32 49.00596 2.56207 357 ft 11 kts 85°
2026-05-07 09:33 49.00603 2.56336 354 ft 13 kts 85°
2026-05-07 09:33 49.00610 2.56481 354 ft 14 kts 85°
2026-05-07 09:33 49.00612 2.56566 354 ft 3 kts 114°
2026-05-07 09:33 49.00592 2.56579 354 ft 3 kts 165°
2026-05-07 09:34 49.00573 2.56586 363 ft 3 kts 166°
2026-05-07 09:34 49.00559 2.56591 360 ft 0 kts 166°